This is the latest recevied weather packets stored in our database for station/object WP4NYS-13. If no packets are shown the sender has not sent any weather packets the latest 10 day(s).
| Time | Temp. | Humidity | Pressure | Rain* | Wind** | Luminosity | Snow |
|---|---|---|---|---|---|---|---|
| 1777993777 | 27.78° C | 55% | 1017.9 hPa | 0 mm | - | - | - |
| 1777993474 | 26.67° C | 56% | 1018 hPa | 0 mm | - | - | - |
| 1777993173 | 26.67° C | 57% | 1017.9 hPa | 0 mm | - | - | - |
| 1777992872 | 26.67° C | 56% | 1017.9 hPa | 0 mm | - | - | - |
| 1777992569 | 26.67° C | 57% | 1018.1 hPa | 0 mm | - | - | - |
| 1777992267 | 26.11° C | 58% | 1018 hPa | 0 mm | - | - | - |
| 1777991964 | 25.56° C | 59% | 1017.9 hPa | 0 mm | - | - | - |
| 1777991662 | 25.56° C | 60% | 1018 hPa | 0 mm | - | - | - |
| 1777991359 | 25.56° C | 60% | 1018 hPa | 0 mm | - | - | - |
| 1777991056 | 25° C | 61% | 1017.9 hPa | 0 mm | - | - | - |
| 1777990753 | 25° C | 61% | 1017.8 hPa | 0 mm | - | - | - |
| 1777990450 | 25° C | 62% | 1017.7 hPa | 0 mm | - | - | - |
| 1777989843 | 24.44° C | 63% | 1017.7 hPa | 0 mm | - | - | - |
| 1777989540 | 23.89° C | 63% | 1017.7 hPa | 0 mm | - | - | - |
| 1777989237 | 23.89° C | 63% | 1017.7 hPa | 0 mm | - | - | - |
| 1777988933 | 23.89° C | 63% | 1018 hPa | 0 mm | - | - | - |
| 1777988630 | 23.89° C | 64% | 1017.8 hPa | 0 mm | - | - | - |
| 1777988327 | 23.33° C | 65% | 1017.7 hPa | 0 mm | - | - | - |
| 1777988024 | 23.33° C | 64% | 1017.5 hPa | 0 mm | - | - | - |
| 1777987719 | 22.78° C | 66% | 1017.8 hPa | 0 mm | - | - | - |
| 1777987417 | 22.78° C | 67% | 1017.6 hPa | 0 mm | - | - | - |
| 1777987113 | 22.78° C | 67% | 1017.6 hPa | 0 mm | - | - | - |
| 1777986811 | 22.78° C | 67% | 1017.4 hPa | 0 mm | - | - | - |
| 1777986509 | 22.22° C | 67% | 1017.6 hPa | 0 mm | - | - | - |
| 1777986206 | 22.22° C | 67% | 1017.3 hPa | 0 mm | - | - | - |
* Rain latest hour (hover to see other rain measurements)
** Current wind speed in m/s (hover to see current wind gust speed)